Eastover, SC

3:24 PM EDT on August 20, 2017 (GMT -0400)
McEntire Angs

Weather History for KMMT - December, 2012

Change the Weather History Date:

Thursday, December 6, 2012

  Actual Average Record
Temperature  
Mean Temperature 54 °F -  
Max Temperature 60 °F 58 °F 80 °F (1998)
Min Temperature 47 °F 38 °F 21 °F (2010)
Degree Days  
Heating Degree Days 12    
Growing Degree Days 4 (Base 50)    
Moisture  
Dew Point 44 °F    
Average Humidity 70    
Maximum Humidity 88    
Minimum Humidity 51    
Precipitation  
Precipitation 0.00 in - - ()
Sea Level Pressure  
Sea Level Pressure 30.19 in    
Wind  
Wind Speed 6 mph (NE)    
Max Wind Speed 13 mph    
Max Gust Speed 18 mph    
Visibility 10 miles    
Events      
Averages and records for this station are not official NWS values.
T = Trace of Precipitation, MM = Missing Value Source: NWS Daily Summary

Daily Weather History Graph

Daily Weather History Graph

Search for Another Location

Airport or City:

Trip Planner

Search our weather history database for the weather conditions in past years. The results will help you decide how hot, cold, wet, or windy it might be!

Date:

Astronomy

Dec. 06, 2012 Rise Set
Actual Time 7:14 AM EST 5:14 PM EST
Civil Twilight 6:47 AM EST 5:41 PM EST
Nautical Twilight 6:16 AM EST 6:12 PM EST
Astronomical Twilight 5:45 AM EST 6:42 PM EST
Moon No Moon Rise 12:22 PM EST (12/6)
Length of Visible Light 10h 54m
Length of Day
9h 59m
Waning Gibbous, 49% of the Moon is Illuminated
Dec 6
Waning Gibbous
Dec 13
New
Dec 20
First Quarter
Dec 28
Full
Jan 4
Last Quarter

Hourly Weather History & Observations

Time (EST) Temp. Dew Point Humidity Pressure Visibility Wind Dir Wind Speed Gust Speed Precip Events Conditions
12:55 AM 56.1 °F 49.8 °F 79% 30.16 in 10.0 mi NE 5.8 mph - N/A   Overcast
1:55 AM 55.6 °F 46.4 °F 71% 30.17 in 10.0 mi NE 5.8 mph - N/A   Overcast
2:55 AM 55.8 °F 47.3 °F 73% 30.17 in 10.0 mi NE 5.8 mph - N/A   Overcast
3:30 AM 55.4 °F 48.2 °F 77% 30.17 in 10.0 mi NE 4.6 mph - N/A   Overcast
3:35 AM 55.4 °F 48.2 °F 77% 30.17 in 10.0 mi ENE 5.8 mph - N/A   Overcast
3:38 AM 55.4 °F 48.2 °F 77% 30.17 in 10.0 mi ENE 4.6 mph - N/A   Overcast
3:45 AM 55.4 °F 48.2 °F 77% 30.17 in 10.0 mi ENE 5.8 mph - N/A   Overcast
3:55 AM 55.9 °F 48.7 °F 77% 30.16 in 10.0 mi NE 5.8 mph - N/A   Overcast
4:32 AM 55.4 °F 50.0 °F 82% 30.16 in 10.0 mi NE 4.6 mph - N/A   Overcast
4:55 AM 55.8 °F 50.2 °F 82% 30.17 in 10.0 mi NNE 6.9 mph - N/A   Overcast
5:26 AM 55.4 °F 50.0 °F 82% 30.17 in 10.0 mi NNE 3.5 mph - N/A   Overcast
5:47 AM 55.4 °F 51.8 °F 88% 30.17 in 10.0 mi ENE 6.9 mph - N/A   Overcast
5:55 AM 55.0 °F 51.6 °F 88% 30.17 in 10.0 mi NE 4.6 mph - N/A   Overcast
6:19 AM 55.4 °F 51.8 °F 88% 30.18 in 10.0 mi Variable 6.9 mph - N/A   Overcast
6:28 AM 55.4 °F 51.8 °F 88% 30.19 in 10.0 mi Variable 5.8 mph - N/A   Overcast
6:55 AM 54.7 °F 48.9 °F 81% 30.20 in 10.0 mi ENE 10.4 mph 17.3 mph N/A   Overcast
7:55 AM 53.4 °F 47.5 °F 80% 30.22 in 10.0 mi ENE 8.1 mph - N/A   Overcast
7:59 AM 53.6 °F 48.2 °F 82% 30.22 in 10.0 mi ENE 9.2 mph - N/A   Overcast
8:55 AM 54.0 °F 45.1 °F 72% 30.23 in 10.0 mi NE 6.9 mph - N/A   Overcast
9:55 AM 54.9 °F 41.9 °F 62% 30.25 in 10.0 mi ENE 10.4 mph - N/A   Overcast
10:55 AM 55.9 °F 42.4 °F 61% 30.24 in 10.0 mi NE 12.7 mph 18.4 mph N/A   Mostly Cloudy
11:55 AM 57.4 °F 42.3 °F 57% 30.22 in 10.0 mi NE 9.2 mph 16.1 mph N/A   Mostly Cloudy
12:37 PM 60.8 °F 42.8 °F 52% 30.20 in 10.0 mi NNE 9.2 mph - N/A   Scattered Clouds
12:55 PM 60.4 °F 44.6 °F 56% 30.19 in 10.0 mi NNE 8.1 mph - N/A   Scattered Clouds
1:55 PM 59.4 °F 41.9 °F 52% 30.17 in 10.0 mi Variable 6.9 mph - N/A   Scattered Clouds
2:55 PM 57.7 °F 39.9 °F 51% 30.18 in 10.0 mi NNE 9.2 mph - N/A   Mostly Cloudy
3:55 PM 57.7 °F 39.9 °F 51% 30.18 in 10.0 mi ENE 9.2 mph - N/A   Mostly Cloudy
4:55 PM 53.8 °F 38.7 °F 57% 30.19 in 10.0 mi NNE 6.9 mph - N/A   Mostly Cloudy
5:55 PM 51.1 °F 37.9 °F 61% 30.20 in 10.0 mi Variable 6.9 mph - N/A   Mostly Cloudy
6:55 PM 50.4 °F 36.3 °F 59% 30.21 in 10.0 mi Variable 6.9 mph - N/A   Mostly Cloudy
7:55 PM 50.2 °F 36.1 °F 59% 30.21 in 10.0 mi NE 6.9 mph - N/A   Mostly Cloudy
8:55 PM 49.6 °F 36.5 °F 61% 30.22 in 10.0 mi ENE 5.8 mph - N/A   Overcast
9:55 PM 48.9 °F 37.0 °F 64% 30.20 in 10.0 mi NE 4.6 mph - N/A   Mostly Cloudy
10:06 PM 48.2 °F 37.4 °F 66% 30.19 in 10.0 mi NNE 3.5 mph - N/A   Mostly Cloudy
10:55 PM 47.3 °F 37.0 °F 68% 30.19 in 10.0 mi Calm Calm - N/A   Mostly Cloudy
11:15 PM 48.2 °F 37.4 °F 66% 30.18 in 10.0 mi North 3.5 mph - N/A   Overcast
11:55 PM 48.6 °F 36.0 °F 62% 30.18 in 10.0 mi Calm Calm - N/A   Overcast